User: anonymous   Login
Location: Roanoke
(37.2710°N, 79.9420°W)
Time: 20:25:34
(UTC-04:00)
Language:

Cosmos 1441 Rocket - Orbit

View from above orbital plane
View from above orbital plane
View from above satellite
View from above satellite

Ground track
Ground track

The orbit data is extracted from the following two-line orbital elements,

1 13819U 83010B   16243.20335640  .00001003  00000-0  52466-4 0  9994
2 13819  81.1169 139.2030 0032083 226.8998 132.9545 15.14520004829671
Epoch (UTC): 30 August 2016 04:52:49
Eccentricity: 0.0032083
inclination: 81.1169°
perigee height: 500 km
apogee height: 544 km
right ascension of ascending node: 139.2030°
argument of perigee: 226.8998°
revolutions per day: 15.14520004
mean anomaly at epoch: 132.9545°
orbit number at epoch: 82967

The dashed part of the orbit path shows where the satellite is in the earth's shadow,  

DLR